Weather History for PAWN - February, 2014

Change the Weather History Date:

Saturday, February 22, 2014

  Actual Average Record
Temperature  
Mean Temperature 0 °F -  
Max Temperature 17 °F 7 °F 30 °F (2001)
Min Temperature -16 °F -1 °F -36 °F (2011)
Degree Days  
Heating Degree Days 64    
Moisture  
Dew Point -7 °F    
Average Humidity 61    
Maximum Humidity 79    
Minimum Humidity 42    
Precipitation  
Precipitation 0.00 in - - ()
Sea Level Pressure  
Sea Level Pressure 30.16 in    
Wind  
Wind Speed 5 mph (NNE)    
Max Wind Speed 14 mph    
Max Gust Speed 17 mph    
Visibility 10 miles    
Events      
Averages and records for this station are not official NWS values.
T = Trace of Precipitation, MM = Missing Value Source: NWS Daily Summary

Daily Weather History Graph

Daily Weather History Graph

Search for Another Location

Airport or City:

Trip Planner

Search our weather history database for the weather conditions in past years. The results will help you decide how hot, cold, wet, or windy it might be!

Date:

Astronomy

Feb. 22, 2014 Rise Set
Actual Time 9:36 AM AKST 6:35 PM AKST
Civil Twilight 8:39 AM AKST 7:32 PM AKST
Nautical Twilight 7:36 AM AKST 8:35 PM AKST
Astronomical Twilight 6:32 AM AKST 9:40 PM AKST
Moon 5:14 AM AKST (2/22) 10:22 AM AKST (2/22)
Length of Visible Light 10h 52m
Length of Day
8h 58m
Waning Gibbous, 48% of the Moon is Illuminated
Feb 22
Waning Gibbous
Feb 28
New
Mar 8
First Quarter
Mar 16
Full
Mar 23
Last Quarter

Hourly Weather History & Observations

Time (AKST) Temp. Windchill Dew Point Humidity Pressure Visibility Wind Dir Wind Speed Gust Speed Precip Events Conditions
12:16 AM -14.8 °F -27.2 °F -23.8 °F 64% 30.34 in 10.0 mi North 4.6 mph - N/A   Clear
12:36 AM -13.0 °F -27.0 °F -27.4 °F 49% 30.35 in 10.0 mi NE 5.8 mph - N/A   Clear
12:56 AM -14.8 °F - -23.8 °F 64% 30.34 in 10.0 mi Calm Calm - N/A   Clear
1:16 AM -16.6 °F - - N/A% 30.33 in 10.0 mi Calm Calm - N/A   Clear
1:36 AM -14.8 °F -24.8 °F -23.8 °F 64% 30.33 in 10.0 mi NNE 3.5 mph - N/A   Clear
1:56 AM -14.8 °F - -27.4 °F 53% 30.32 in 10.0 mi Calm Calm - N/A   Clear
2:16 AM -16.6 °F -29.3 °F -25.6 °F 64% 30.31 in 10.0 mi North 4.6 mph - N/A   Clear
2:36 AM -11.2 °F - -20.2 °F 64% 30.32 in 10.0 mi Calm Calm - N/A   Clear
2:56 AM -11.2 °F - -25.6 °F 49% 30.32 in 10.0 mi Calm Calm - N/A   Clear
3:16 AM -11.2 °F -20.6 °F -22.0 °F 59% 30.32 in 10.0 mi NE 3.5 mph - N/A   Clear
3:36 AM -9.4 °F - -23.8 °F 49% 30.31 in 10.0 mi Calm Calm - N/A   Clear
3:56 AM -9.4 °F -20.9 °F -23.8 °F 49% 30.30 in 10.0 mi NNE 4.6 mph - N/A   Clear
4:16 AM -11.2 °F -20.6 °F -25.6 °F 49% 30.29 in 10.0 mi NE 3.5 mph - N/A   Clear
4:36 AM -11.2 °F -24.8 °F -23.8 °F 54% 30.28 in 10.0 mi NE 5.8 mph - N/A   Clear
4:56 AM -9.4 °F -20.9 °F -18.4 °F 65% - 10.0 mi NE 4.6 mph - N/A   Clear
5:16 AM -7.6 °F -20.6 °F -23.8 °F 45% 30.26 in 10.0 mi NNE 5.8 mph - N/A   Clear
5:36 AM -9.4 °F -22.7 °F -23.8 °F 49% 30.26 in 10.0 mi ENE 5.8 mph - N/A   Clear
5:56 AM -7.6 °F -18.8 °F -20.2 °F 54% 30.25 in 10.0 mi NNE 4.6 mph - N/A   Clear
6:16 AM -5.8 °F -19.9 °F -20.2 °F 50% 30.24 in 10.0 mi North 6.9 mph - N/A   Clear
6:36 AM -5.8 °F -21.2 °F -20.2 °F 50% - 10.0 mi NNE 8.1 mph - N/A   Clear
6:56 AM -4.0 °F -20.2 °F -20.2 °F 46% - 10.0 mi NNE 9.2 mph 16.1 mph N/A   Clear
7:16 AM -5.8 °F -14.5 °F -18.4 °F 55% 30.23 in 10.0 mi ENE 3.5 mph - N/A   Clear
7:36 AM -5.8 °F -14.5 °F -18.4 °F 55% 30.22 in 10.0 mi NNE 3.5 mph - N/A   Clear
7:56 AM -2.2 °F -21.5 °F -20.2 °F 42% - 10.0 mi NNE 13.8 mph - N/A   Clear
8:16 AM -2.2 °F -16.8 °F -14.8 °F 55% 30.20 in 10.0 mi NNE 8.1 mph - N/A   Clear
8:36 AM -2.2 °F -19.9 °F -18.4 °F 46% - 10.0 mi NNE 11.5 mph - N/A   Clear
8:56 AM -0.4 °F -16.7 °F -16.6 °F 46% 30.18 in 10.0 mi North 10.4 mph - N/A   Clear
9:16 AM -0.4 °F -15.7 °F -16.6 °F 46% 30.17 in 10.0 mi North 9.2 mph - N/A   Clear
9:36 AM -0.4 °F -15.7 °F -16.6 °F 46% 30.17 in 10.0 mi NNE 9.2 mph - N/A   Clear
9:56 AM 1.4 °F -13.5 °F -14.8 °F 47% 30.16 in 10.0 mi NNE 9.2 mph - N/A   Scattered Clouds
10:16 AM 1.4 °F -16.1 °F -14.8 °F 47% - 10.0 mi NNE 12.7 mph - N/A   Mostly Cloudy
10:36 AM 1.4 °F -16.9 °F - N/A% - 10.0 mi NNE 13.8 mph 17.3 mph N/A   Scattered Clouds
10:56 AM 3.2 °F -11.3 °F -13.0 °F 47% - 10.0 mi NNE 9.2 mph - N/A   Mostly Cloudy
11:16 AM 3.2 °F -11.3 °F -11.2 °F 51% 30.14 in 10.0 mi NNE 9.2 mph - N/A   Overcast
11:36 AM 3.2 °F -9.1 °F -9.4 °F 56% 30.14 in 10.0 mi ENE 6.9 mph - N/A   Overcast
11:56 AM 5.0 °F -4.1 °F -7.6 °F 56% 30.14 in 10.0 mi NE 4.6 mph - N/A   Overcast
12:16 PM 5.0 °F -2.1 °F -9.4 °F 52% 30.14 in 10.0 mi NE 3.5 mph - N/A   Overcast
12:36 PM 6.8 °F -3.5 °F -9.4 °F 48% - 10.0 mi NNE 5.8 mph - N/A   Overcast
12:56 PM 6.8 °F -3.5 °F -7.6 °F 52% 30.14 in 10.0 mi NNE 5.8 mph - N/A   Overcast
1:16 PM 8.6 °F -3.7 °F -4.0 °F 57% - 10.0 mi NNE 8.1 mph - N/A   Overcast
1:36 PM 8.6 °F -5.5 °F -0.4 °F 67% - 10.0 mi North 10.4 mph - N/A   Overcast
1:56 PM 10.4 °F -2.4 °F -2.2 °F 57% - 10.0 mi NNE 9.2 mph - N/A   Overcast
2:16 PM 10.4 °F -1.5 °F -5.8 °F 48% 30.12 in 10.0 mi NNE 8.1 mph - N/A   Overcast
2:36 PM 10.4 °F -0.4 °F -2.2 °F 57% 30.12 in 10.0 mi NNE 6.9 mph - N/A   Overcast
2:56 PM 12.2 °F 2.9 °F 1.4 °F 62% 30.11 in 10.0 mi NE 5.8 mph - N/A   Unknown
3:16 PM 12.2 °F 1.7 °F 1.4 °F 62% 30.10 in 10.0 mi NE 6.9 mph - N/A   Unknown
3:36 PM 12.2 °F 6.1 °F 3.2 °F 67% 30.08 in 10.0 mi North 3.5 mph - N/A   Unknown
3:56 PM 12.2 °F -0.2 °F 3.2 °F 67% 30.09 in 10.0 mi North 9.2 mph - N/A   Overcast
4:16 PM 14.0 °F 5.1 °F 6.8 °F 73% 30.09 in 10.0 mi NNE 5.8 mph - N/A   Overcast
4:36 PM 14.0 °F 6.5 °F 8.6 °F 79% 30.07 in 10.0 mi NNE 4.6 mph - N/A   Overcast
4:56 PM 14.0 °F 5.1 °F 8.6 °F 79% 30.08 in 10.0 mi NNE 5.8 mph - N/A   Overcast
5:16 PM 15.8 °F 7.2 °F 8.6 °F 73% 30.08 in 10.0 mi NE 5.8 mph - N/A   Overcast
5:36 PM 14.0 °F 6.5 °F 8.6 °F 79% 30.08 in 10.0 mi ENE 4.6 mph - N/A   Overcast
5:56 PM 14.0 °F - 8.6 °F 79% 30.05 in 10.0 mi Calm Calm - N/A   Overcast
6:16 PM 14.0 °F - 8.6 °F 79% 30.05 in 10.0 mi Calm Calm - N/A   Overcast
6:36 PM 15.8 °F - 10.4 °F 79% 30.07 in 10.0 mi Calm Calm - N/A   Overcast
6:56 PM 14.0 °F 6.5 °F 8.6 °F 79% 30.06 in 10.0 mi North 4.6 mph - N/A   Overcast
7:16 PM 15.8 °F - 8.6 °F 73% 30.05 in 10.0 mi Calm Calm - N/A   Overcast
7:36 PM 15.8 °F - 8.6 °F 73% 30.05 in 10.0 mi Calm Calm - N/A   Overcast
7:56 PM 15.8 °F - 10.4 °F 79% 30.06 in 10.0 mi Calm Calm - N/A   Overcast
8:16 PM 15.8 °F 7.2 °F 10.4 °F 79% 30.07 in 10.0 mi North 5.8 mph - N/A   Overcast
8:36 PM 15.8 °F - 8.6 °F 73% 30.07 in 10.0 mi Calm Calm - N/A   Overcast
8:56 PM 15.8 °F - 10.4 °F 79% 30.07 in 10.0 mi Calm Calm - N/A   Overcast
9:16 PM 17.6 °F - 8.6 °F 68% 30.06 in 10.0 mi Calm Calm - N/A   Overcast
9:36 PM 17.6 °F 10.7 °F 8.6 °F 68% 30.06 in 10.0 mi NE 4.6 mph - N/A   Overcast
9:56 PM 17.6 °F 12.3 °F 10.4 °F 73% 30.05 in 10.0 mi NNE 3.5 mph - N/A   Overcast
10:16 PM 17.6 °F - 10.4 °F 73% 30.05 in 10.0 mi Calm Calm - N/A   Overcast
10:36 PM 17.6 °F - 10.4 °F 73% 30.05 in 10.0 mi Calm Calm - N/A   Overcast
10:56 PM 17.6 °F - 10.4 °F 73% 30.05 in 10.0 mi Calm Calm - N/A   Overcast
11:16 PM 17.6 °F - 8.6 °F 68% 30.05 in 10.0 mi Calm Calm - N/A   Overcast
11:36 PM 17.6 °F - 8.6 °F 68% 30.05 in 10.0 mi Calm Calm - N/A   Overcast
11:56 PM 17.6 °F - 10.4 °F 73% 30.05 in 10.0 mi Calm Calm - N/A   Overcast